contact:dominique.lefevre@mio.osupytheas.fr, maurice.libes@osupytheas.fr, didier.mallarino@osupytheas.fr
Project:EMSO http://www.emso-fr.org/EMSO-France
Depth: 2436.0 m
Title:EMSO Ligure Ouest : Data MII capteur AQUADOPP
Date,Latitude,Longitude,X_East,Y_North,Z_Up,Amplitude_X,Amplitude_Y,Amplitude_Z,Batterie,SoundSpeed,Heading,Pitch,Roll,Pressure,TIS,Speed,Direction
, degrees North, degrees East, m.s-1, m.s-1,m.s-1, 1, 1, 1, Volt, m.s-1, degree, degree, degree, dbar, degree_C, m.s-1, degree
2022-03-13T00:04:03,42.805,6.029,0.015,-0.033,0.018,103.0,104.0,101.0,13.3,1505.2,326.7,-0.8,1.8,2470.78,13.28,0.036,155.6
2022-03-13T00:07:03,42.805,6.029,0.031,-0.006,-0.024,102.0,103.0,102.0,13.4,1505.2,331.9,-0.7,1.8,2470.797,13.28,0.031,101.0
2022-03-13T00:10:03,42.805,6.029,0.004,-0.016,-0.001,103.0,103.0,101.0,13.3,1505.2,332.4,-0.8,1.8,2470.796,13.28,0.016,166.0
2022-03-13T00:13:03,42.805,6.029,0.0,-0.007,-0.017,103.0,103.0,101.0,13.3,1505.2,324.4,-0.7,1.8,2470.79,13.28,0.007,180.0
2022-03-13T00:16:03,42.805,6.029,0.021,-0.012,-0.031,101.0,104.0,101.0,13.3,1505.2,329.5,-0.8,1.8,2470.764,13.28,0.024,119.7
2022-03-13T00:19:03,42.805,6.029,0.015,-0.033,-0.032,102.0,105.0,101.0,13.4,1505.2,330.2,-0.8,1.8,2470.774,13.28,0.036,155.6
2022-03-13T00:22:03,42.805,6.029,0.048,-0.009,0.008,103.0,103.0,102.0,13.4,1505.2,327.4,-0.7,1.8,2470.815,13.28,0.048,100.6
2022-03-13T00:25:03,42.805,6.029,0.027,-0.012,-0.005,101.0,104.0,101.0,13.4,1505.2,329.1,-0.7,1.8,2470.783,13.28,0.029,114.0
2022-03-13T00:28:03,42.805,6.029,0.025,-0.009,-0.008,103.0,103.0,101.0,13.3,1505.2,329.4,-0.7,1.9,2470.811,13.28,0.026,109.8
2022-03-13T00:31:03,42.805,6.029,0.028,-0.031,-0.021,103.0,103.0,102.0,13.4,1505.2,329.7,-0.7,1.8,2470.804,13.28,0.041,137.9
2022-03-13T00:34:03,42.805,6.029,0.021,-0.006,-0.003,103.0,103.0,101.0,13.3,1505.2,323.6,-0.8,1.8,2470.761,13.28,0.021,105.9
2022-03-13T00:37:03,42.805,6.029,0.032,-0.016,-0.019,104.0,103.0,101.0,13.4,1505.2,328.2,-0.8,1.8,2470.784,13.28,0.035,116.6
2022-03-13T00:40:03,42.805,6.029,0.015,-0.002,-0.008,103.0,103.0,101.0,13.3,1505.2,324.8,-0.8,1.8,2470.779,13.28,0.015,97.6
2022-03-13T00:43:03,42.805,6.029,0.031,0.012,-0.013,103.0,104.0,102.0,13.3,1505.2,326.9,-0.7,1.8,2470.791,13.28,0.033,68.8
2022-03-13T00:46:03,42.805,6.029,0.022,0.0,-0.004,102.0,103.0,103.0,13.4,1505.2,326.6,-0.8,1.8,2470.732,13.28,0.022,90.0
2022-03-13T00:49:03,42.805,6.029,0.02,0.021,-0.018,104.0,104.0,101.0,13.4,1505.2,328.7,-0.8,1.8,2470.805,13.28,0.028,43.6
2022-03-13T00:52:03,42.805,6.029,0.027,-0.018,-0.015,104.0,103.0,101.0,13.4,1505.2,326.3,-0.7,1.8,2470.78,13.28,0.032,123.7
2022-03-13T00:55:03,42.805,6.029,0.016,-0.026,-0.031,104.0,104.0,102.0,13.3,1505.2,323.9,-0.8,1.8,2470.768,13.28,0.03,148.4
2022-03-13T00:58:03,42.805,6.029,0.037,0.004,0.0,102.0,104.0,102.0,13.4,1505.2,330.3,-0.7,1.8,2470.789,13.28,0.037,83.8
2022-03-13T01:04:03,42.805,6.029,0.043,0.0,0.033,105.0,104.0,103.0,13.4,1505.2,323.5,-0.8,1.8,2470.851,13.28,0.043,90.0
2022-03-13T01:07:03,42.805,6.029,0.016,-0.01,-0.018,105.0,105.0,103.0,13.3,1505.2,324.5,-0.7,1.8,2470.85,13.28,0.018,122.0
2022-03-13T01:10:03,42.805,6.029,0.038,-0.024,-0.016,104.0,104.0,102.0,13.4,1505.2,328.9,-0.7,1.8,2470.807,13.28,0.044,122.3
2022-03-13T01:13:03,42.805,6.029,0.025,-0.014,-0.011,104.0,104.0,102.0,13.4,1505.2,328.8,-0.8,1.8,2470.806,13.28,0.028,119.3
2022-03-13T01:16:03,42.805,6.029,0.035,-0.018,0.0,104.0,104.0,102.0,13.3,1505.2,329.9,-0.7,1.8,2470.828,13.28,0.039,117.2
2022-03-13T01:19:03,42.805,6.029,0.048,-0.019,-0.018,104.0,103.0,102.0,13.4,1505.2,328.5,-0.7,1.9,2470.807,13.28,0.051,111.6
2022-03-13T01:22:03,42.805,6.029,0.031,-0.019,-0.028,104.0,104.0,102.0,13.4,1505.2,329.4,-0.8,1.8,2470.8,13.28,0.036,121.5
2022-03-13T01:25:03,42.805,6.029,0.021,-0.019,-0.042,103.0,104.0,101.0,13.3,1505.2,329.0,-0.7,1.8,2470.812,13.28,0.028,132.1
2022-03-13T01:28:03,42.805,6.029,0.035,-0.007,-0.013,104.0,105.0,101.0,13.4,1505.2,328.5,-0.8,1.8,2470.819,13.28,0.035,101.3
2022-03-13T01:31:03,42.805,6.029,0.023,-0.008,0.003,104.0,104.0,102.0,13.3,1505.2,328.6,-0.7,1.8,2470.827,13.28,0.024,109.2
2022-03-13T01:34:03,42.805,6.029,0.023,-0.003,-0.012,104.0,104.0,102.0,13.4,1505.2,327.4,-0.7,1.8,2470.792,13.28,0.023,97.4
2022-03-13T01:37:03,42.805,6.029,0.045,-0.021,0.01,105.0,104.0,101.0,13.4,1505.2,329.9,-0.8,1.8,2470.829,13.28,0.049,115.0
2022-03-13T01:40:03,42.805,6.029,0.001,-0.028,0.0,104.0,103.0,102.0,13.4,1505.2,329.4,-0.8,1.8,2470.809,13.28,0.028,178.0
2022-03-13T01:43:03,42.805,6.029,0.02,0.001,-0.019,104.0,104.0,102.0,13.4,1505.2,326.8,-0.7,1.8,2470.818,13.28,0.02,87.1
2022-03-13T01:46:03,42.805,6.029,0.033,-0.008,0.013,105.0,103.0,102.0,13.3,1505.2,329.7,-0.8,1.8,2470.787,13.28,0.033,103.6
2022-03-13T01:49:03,42.805,6.029,0.025,-0.036,-0.014,103.0,104.0,102.0,13.4,1505.2,325.1,-0.7,1.8,2470.836,13.28,0.043,145.2
2022-03-13T01:52:03,42.805,6.029,0.061,-0.015,-0.028,104.0,104.0,102.0,13.3,1505.2,330.8,-0.7,1.8,2470.777,13.28,0.062,103.8
2022-03-13T01:55:03,42.805,6.029,0.026,-0.003,0.019,104.0,104.0,102.0,13.4,1505.2,329.0,-0.7,1.8,2470.816,13.28,0.026,96.6
2022-03-13T01:58:03,42.805,6.029,0.021,-0.003,-0.001,103.0,105.0,102.0,13.3,1505.2,324.9,-0.8,1.9,2470.818,13.28,0.021,98.1
2022-03-13T02:04:03,42.805,6.029,0.021,-0.006,-0.023,104.0,105.0,103.0,13.3,1505.2,329.9,-0.7,1.9,2470.845,13.28,0.021,105.9
2022-03-13T02:07:03,42.805,6.029,0.032,-0.007,0.007,104.0,105.0,102.0,13.4,1505.2,330.4,-0.7,1.9,2470.869,13.28,0.032,102.3
2022-03-13T02:10:03,42.805,6.029,0.034,-0.008,-0.005,104.0,105.0,103.0,13.4,1505.2,327.1,-0.8,1.8,2470.853,13.28,0.034,103.2
2022-03-13T02:13:03,42.805,6.029,0.026,-0.007,0.019,104.0,104.0,102.0,13.4,1505.2,329.5,-0.7,1.8,2470.864,13.28,0.026,105.1
2022-03-13T02:16:03,42.805,6.029,0.048,-0.015,0.018,105.0,103.0,102.0,13.3,1505.2,323.7,-0.7,1.8,2470.846,13.28,0.05,107.4
2022-03-13T02:19:03,42.805,6.029,0.036,-0.006,0.004,104.0,106.0,102.0,13.3,1505.2,323.3,-0.7,1.8,2470.849,13.28,0.036,99.5
2022-03-13T02:22:03,42.805,6.029,0.033,-0.015,-0.001,104.0,104.0,102.0,13.3,1505.2,325.0,-0.8,1.8,2470.828,13.28,0.036,114.4
2022-03-13T02:25:03,42.805,6.029,0.036,-0.014,-0.017,103.0,105.0,102.0,13.4,1505.2,328.1,-0.8,1.8,2470.864,13.28,0.038,111.2
2022-03-13T02:28:03,42.805,6.029,0.065,-0.004,0.011,105.0,103.0,102.0,13.4,1505.2,324.8,-0.8,1.8,2470.836,13.28,0.065,93.5
2022-03-13T02:31:03,42.805,6.029,0.052,-0.028,-0.013,104.0,104.0,103.0,13.3,1505.2,325.5,-0.8,1.8,2470.829,13.28,0.059,118.3
2022-03-13T02:34:03,42.805,6.029,0.025,-0.011,-0.037,104.0,104.0,102.0,13.3,1505.2,329.0,-0.8,1.8,2470.821,13.28,0.027,113.7
2022-03-13T02:37:03,42.805,6.029,0.032,0.002,-0.03,105.0,105.0,102.0,13.4,1505.2,325.1,-0.8,1.8,2470.818,13.28,0.032,86.4
2022-03-13T02:40:03,42.805,6.029,0.035,-0.005,0.001,104.0,105.0,102.0,13.4,1505.2,325.7,-0.8,1.8,2470.877,13.28,0.035,98.1
2022-03-13T02:43:03,42.805,6.029,0.036,-0.03,0.026,105.0,105.0,101.0,13.3,1505.2,329.0,-0.8,1.8,2470.854,13.28,0.046,129.8
2022-03-13T02:46:03,42.805,6.029,0.045,0.013,-0.016,103.0,104.0,102.0,13.4,1505.2,323.1,-0.8,1.8,2470.831,13.28,0.046,73.9
2022-03-13T02:49:03,42.805,6.029,0.043,-0.01,-0.012,104.0,104.0,103.0,13.3,1505.2,326.8,-0.8,1.8,2470.834,13.28,0.044,103.1
2022-03-13T02:52:03,42.805,6.029,0.037,-0.011,-0.01,104.0,104.0,103.0,13.4,1505.2,324.7,-0.7,1.8,2470.816,13.28,0.038,106.6
2022-03-13T02:55:03,42.805,6.029,0.026,-0.017,0.008,105.0,105.0,102.0,13.4,1505.2,328.1,-0.8,1.9,2470.826,13.28,0.031,123.2
2022-03-13T02:58:03,42.805,6.029,0.026,-0.02,-0.005,104.0,104.0,102.0,13.4,1505.2,331.9,-0.8,1.8,2470.807,13.28,0.032,127.6
2022-03-13T03:04:03,42.805,6.029,0.024,-0.007,-0.026,104.0,104.0,102.0,13.3,1505.2,325.8,-0.8,1.8,2470.885,13.28,0.025,106.3
2022-03-13T03:07:03,42.805,6.029,0.058,-0.006,-0.013,105.0,103.0,101.0,13.4,1505.2,331.5,-0.7,1.8,2470.855,13.28,0.058,95.9
2022-03-13T03:10:03,42.805,6.029,0.042,0.0,0.003,105.0,105.0,102.0,13.4,1505.2,325.6,-0.8,1.9,2470.843,13.28,0.042,90.0
2022-03-13T03:13:03,42.805,6.029,0.029,-0.001,-0.004,104.0,105.0,101.0,13.4,1505.2,323.9,-0.8,1.8,2470.861,13.28,0.029,92.0
2022-03-13T03:16:03,42.805,6.029,0.041,-0.019,-0.018,104.0,104.0,101.0,13.4,1505.2,331.1,-0.7,1.8,2470.843,13.28,0.045,114.9
2022-03-13T03:19:03,42.805,6.029,0.047,-0.015,0.0,105.0,104.0,102.0,13.4,1505.2,331.6,-0.7,1.8,2470.918,13.28,0.049,107.7
2022-03-13T03:22:03,42.805,6.029,0.035,-0.023,-0.008,104.0,105.0,102.0,13.3,1505.2,329.0,-0.8,1.8,2470.87,13.28,0.041,123.3
2022-03-13T03:25:03,42.805,6.029,0.036,-0.012,-0.004,104.0,104.0,102.0,13.4,1505.2,326.0,-0.8,1.8,2470.853,13.28,0.037,108.4
2022-03-13T03:28:03,42.805,6.029,0.044,0.001,-0.022,104.0,103.0,102.0,13.4,1505.2,324.7,-0.8,1.8,2470.875,13.28,0.044,88.7
2022-03-13T03:31:03,42.805,6.029,0.046,-0.014,-0.019,103.0,104.0,102.0,13.4,1505.2,328.7,-0.7,1.8,2470.829,13.28,0.048,106.9
2022-03-13T03:34:03,42.805,6.029,0.057,-0.031,-0.007,103.0,104.0,103.0,13.3,1505.2,328.7,-0.7,1.8,2470.853,13.28,0.064,118.5
2022-03-13T03:37:03,42.805,6.029,0.044,-0.014,0.024,105.0,104.0,102.0,13.4,1505.2,328.5,-0.8,1.8,2470.827,13.28,0.046,107.6
2022-03-13T03:40:03,42.805,6.029,0.047,-0.018,0.007,103.0,103.0,102.0,13.4,1505.2,327.8,-0.8,1.8,2470.841,13.28,0.05,111.0
2022-03-13T03:43:03,42.805,6.029,0.023,-0.007,-0.004,105.0,103.0,102.0,13.4,1505.2,329.9,-0.8,1.8,2470.817,13.28,0.024,106.9
2022-03-13T03:46:03,42.805,6.029,0.037,-0.012,-0.013,104.0,105.0,102.0,13.4,1505.2,328.6,-0.8,1.8,2470.868,13.28,0.038,108.0
2022-03-13T03:49:03,42.805,6.029,0.023,-0.011,-0.026,104.0,104.0,102.0,13.4,1505.2,329.9,-0.7,1.8,2470.847,13.28,0.025,115.6
2022-03-13T03:52:03,42.805,6.029,0.043,-0.02,0.001,103.0,104.0,102.0,13.4,1505.2,332.9,-0.8,1.8,2470.876,13.28,0.047,114.9
2022-03-13T03:55:03,42.805,6.029,0.046,-0.018,-0.029,103.0,105.0,102.0,13.4,1505.2,327.4,-0.7,1.8,2470.85,13.28,0.049,111.4
2022-03-13T03:58:03,42.805,6.029,0.045,-0.023,-0.017,103.0,105.0,101.0,13.4,1505.2,327.7,-0.8,1.8,2470.899,13.28,0.05,117.1
2022-03-13T04:04:03,42.805,6.029,0.038,-0.032,-0.012,103.0,103.0,102.0,13.4,1505.2,332.4,-0.7,1.8,2470.909,13.28,0.049,130.1
2022-03-13T04:07:03,42.805,6.029,0.036,-0.01,0.021,103.0,104.0,102.0,13.3,1505.2,325.4,-0.8,1.8,2470.883,13.28,0.037,105.5
2022-03-13T04:10:03,42.805,6.029,0.034,-0.022,-0.018,103.0,103.0,101.0,13.4,1505.2,323.1,-0.7,1.8,2470.886,13.28,0.04,122.9
2022-03-13T04:13:03,42.805,6.029,0.061,-0.027,-0.015,103.0,104.0,102.0,13.4,1505.2,327.8,-0.8,1.8,2470.876,13.28,0.066,113.9
2022-03-13T04:16:03,42.805,6.029,0.034,-0.003,0.027,104.0,103.0,101.0,13.4,1505.2,325.4,-0.7,1.8,2470.904,13.28,0.034,95.0
2022-03-13T04:19:03,42.805,6.029,0.045,-0.008,-0.013,105.0,105.0,101.0,13.4,1505.2,326.9,-0.8,1.8,2470.867,13.28,0.045,100.1
2022-03-13T04:22:03,42.805,6.029,0.043,-0.032,-0.007,103.0,103.0,101.0,13.4,1505.2,329.9,-0.7,1.8,2470.875,13.28,0.053,126.7
2022-03-13T04:25:03,42.805,6.029,0.058,-0.024,-0.033,103.0,103.0,102.0,13.3,1505.2,329.5,-0.7,1.8,2470.899,13.28,0.062,112.5
2022-03-13T04:28:03,42.805,6.029,0.041,-0.006,-0.012,103.0,103.0,101.0,13.3,1505.2,324.5,-0.8,1.8,2470.845,13.28,0.041,98.3
2022-03-13T04:31:03,42.805,6.029,0.026,-0.021,0.026,104.0,103.0,102.0,13.4,1505.2,325.1,-0.8,1.8,2470.886,13.28,0.033,128.9
2022-03-13T04:34:03,42.805,6.029,0.024,-0.012,-0.017,105.0,103.0,101.0,13.3,1505.2,325.6,-0.8,1.8,2470.871,13.28,0.026,116.6
2022-03-13T04:37:03,42.805,6.029,0.048,0.001,-0.015,103.0,104.0,102.0,13.4,1505.2,325.9,-0.8,1.8,2470.844,13.28,0.048,88.8
2022-03-13T04:40:03,42.805,6.029,0.036,-0.028,0.028,102.0,105.0,103.0,13.4,1505.2,327.8,-0.8,1.8,2470.836,13.28,0.045,127.9
2022-03-13T04:43:03,42.805,6.029,0.044,-0.016,0.0,105.0,103.0,102.0,13.3,1505.2,323.1,-0.8,1.9,2470.88,13.28,0.046,110.0
2022-03-13T04:46:03,42.805,6.029,0.023,-0.012,0.004,104.0,104.0,101.0,13.4,1505.2,328.7,-0.8,1.8,2470.858,13.28,0.025,117.6
2022-03-13T04:49:03,42.805,6.029,0.03,-0.014,0.01,103.0,104.0,101.0,13.3,1505.2,328.4,-0.8,1.8,2470.86,13.28,0.033,115.0
2022-03-13T04:52:03,42.805,6.029,0.055,-0.03,0.047,103.0,103.0,101.0,13.3,1505.2,326.8,-0.8,1.8,2470.838,13.28,0.062,118.6
2022-03-13T04:55:03,42.805,6.029,0.039,-0.029,-0.022,103.0,103.0,102.0,13.3,1505.2,329.7,-0.8,1.8,2470.853,13.28,0.048,126.6
2022-03-13T04:58:03,42.805,6.029,0.034,-0.009,-0.025,104.0,103.0,101.0,13.4,1505.2,324.7,-0.8,1.9,2470.829,13.28,0.035,104.8
2022-03-13T05:04:03,42.805,6.029,0.017,-0.006,0.015,103.0,104.0,102.0,13.3,1505.2,328.7,-0.8,1.8,2470.888,13.28,0.018,109.4
2022-03-13T05:07:03,42.805,6.029,0.035,-0.02,0.032,102.0,105.0,102.0,13.4,1505.2,323.8,-0.7,1.8,2470.904,13.28,0.04,119.7
2022-03-13T05:10:03,42.805,6.029,0.055,-0.019,-0.005,103.0,104.0,101.0,13.3,1505.2,325.1,-0.8,1.8,2470.905,13.28,0.058,109.1
2022-03-13T05:13:03,42.805,6.029,0.022,-0.027,0.004,104.0,103.0,102.0,13.4,1505.2,327.1,-0.8,1.9,2470.91,13.28,0.034,140.8
2022-03-13T05:16:03,42.805,6.029,0.059,-0.039,-0.013,104.0,103.0,101.0,13.4,1505.2,323.3,-0.8,1.8,2470.894,13.28,0.07,123.5
2022-03-13T05:19:03,42.805,6.029,0.015,-0.027,-0.029,103.0,102.0,102.0,13.4,1505.2,327.9,-0.7,1.8,2470.89,13.28,0.03,150.9
2022-03-13T05:22:03,42.805,6.029,0.02,-0.007,-0.007,103.0,103.0,101.0,13.3,1505.2,326.9,-0.8,1.8,2470.882,13.28,0.021,109.3
2022-03-13T05:25:03,42.805,6.029,0.037,-0.021,-0.028,105.0,104.0,102.0,13.4,1505.2,325.4,-0.8,1.8,2470.831,13.28,0.042,119.6
2022-03-13T05:28:03,42.805,6.029,0.028,-0.023,-0.01,104.0,105.0,101.0,13.3,1505.2,328.0,-0.8,1.8,2470.897,13.28,0.036,129.4
2022-03-13T05:31:03,42.805,6.029,0.034,-0.029,-0.016,104.0,104.0,102.0,13.4,1505.2,327.6,-0.8,1.8,2470.883,13.28,0.044,130.5
2022-03-13T05:34:03,42.805,6.029,0.037,-0.009,0.0,103.0,103.0,102.0,13.4,1505.2,325.9,-0.8,1.8,2470.874,13.28,0.038,103.7
2022-03-13T05:37:03,42.805,6.029,0.044,-0.028,0.011,104.0,102.0,103.0,13.4,1505.2,328.6,-0.7,1.8,2470.853,13.28,0.052,122.5
2022-03-13T05:40:03,42.805,6.029,0.01,-0.005,-0.008,103.0,103.0,102.0,13.4,1505.2,324.4,-0.7,1.8,2470.88,13.28,0.011,116.6
2022-03-13T05:43:03,42.805,6.029,0.041,-0.018,-0.02,104.0,104.0,102.0,13.4,1505.2,322.5,-0.8,1.8,2470.886,13.28,0.044,113.7
2022-03-13T05:46:03,42.805,6.029,0.039,-0.021,-0.046,104.0,103.0,102.0,13.3,1505.2,328.2,-0.8,1.9,2470.846,13.28,0.044,118.3
2022-03-13T05:49:03,42.805,6.029,0.034,-0.039,-0.014,102.0,104.0,103.0,13.4,1505.2,327.8,-0.7,1.8,2470.856,13.28,0.051,138.9
2022-03-13T05:52:03,42.805,6.029,0.047,-0.026,-0.015,103.0,103.0,102.0,13.4,1505.2,324.4,-0.8,1.8,2470.862,13.28,0.053,118.9
2022-03-13T05:55:03,42.805,6.029,0.03,-0.008,-0.025,103.0,104.0,101.0,13.3,1505.2,324.5,-0.8,1.8,2470.824,13.28,0.031,104.9
2022-03-13T05:58:03,42.805,6.029,0.032,-0.023,-0.023,104.0,103.0,102.0,13.4,1505.2,326.5,-0.8,1.8,2470.844,13.28,0.039,125.7
2022-03-13T06:04:04,42.805,6.029,0.007,-0.016,-0.016,104.0,103.0,102.0,13.4,1505.2,330.9,-0.8,1.8,2470.864,13.28,0.017,156.4
2022-03-13T06:07:03,42.805,6.029,0.048,-0.016,0.029,104.0,103.0,101.0,13.4,1505.2,324.7,-0.8,1.9,2470.882,13.28,0.05,108.4
2022-03-13T06:10:03,42.805,6.029,0.048,-0.022,-0.013,103.0,103.0,102.0,13.4,1505.2,328.5,-0.7,1.8,2470.892,13.28,0.052,114.6
2022-03-13T06:13:03,42.805,6.029,0.039,-0.005,-0.003,103.0,102.0,101.0,13.4,1505.2,331.0,-0.7,1.8,2470.867,13.28,0.039,97.3
2022-03-13T06:16:03,42.805,6.029,0.053,-0.026,-0.023,105.0,103.0,101.0,13.4,1505.2,331.1,-0.8,1.8,2470.86,13.28,0.059,116.1
2022-03-13T06:19:03,42.805,6.029,0.02,-0.016,-0.014,102.0,103.0,103.0,13.3,1505.2,329.5,-0.8,1.8,2470.904,13.28,0.025,128.7
2022-03-13T06:22:03,42.805,6.029,0.018,-0.028,-0.023,103.0,105.0,101.0,13.4,1505.2,328.7,-0.8,1.8,2470.902,13.28,0.033,147.3
2022-03-13T06:25:03,42.805,6.029,0.006,-0.013,0.011,103.0,105.0,102.0,13.4,1505.2,330.0,-0.8,1.8,2470.863,13.28,0.014,155.2
2022-03-13T06:28:03,42.805,6.029,0.024,-0.045,-0.042,104.0,103.0,102.0,13.4,1505.2,327.3,-0.8,1.8,2470.856,13.28,0.051,151.9
2022-03-13T06:31:03,42.805,6.029,0.032,-0.027,-0.037,104.0,103.0,101.0,13.4,1505.2,324.2,-0.8,1.8,2470.864,13.28,0.041,130.2
2022-03-13T06:34:03,42.805,6.029,0.034,-0.02,-0.014,103.0,103.0,102.0,13.4,1505.2,327.4,-0.8,1.8,2470.853,13.28,0.039,120.5
2022-03-13T06:37:03,42.805,6.029,0.019,-0.022,-0.031,102.0,102.0,103.0,13.4,1505.2,326.7,-0.8,1.8,2470.858,13.28,0.029,139.2
2022-03-13T06:40:03,42.805,6.029,0.03,-0.034,-0.021,104.0,103.0,102.0,13.4,1505.2,329.2,-0.7,1.8,2470.848,13.28,0.045,138.6
2022-03-13T06:43:03,42.805,6.029,0.018,-0.018,-0.007,103.0,103.0,101.0,13.4,1505.2,324.4,-0.8,1.8,2470.865,13.28,0.025,135.0
2022-03-13T06:46:03,42.805,6.029,0.028,-0.012,0.001,101.0,103.0,102.0,13.4,1505.2,322.6,-0.7,1.8,2470.851,13.28,0.03,113.2
2022-03-13T06:49:03,42.805,6.029,0.013,-0.004,0.0,104.0,103.0,102.0,13.3,1505.2,330.0,-0.8,1.8,2470.836,13.28,0.013,107.1
2022-03-13T06:52:03,42.805,6.029,0.015,-0.015,-0.007,103.0,103.0,101.0,13.4,1505.2,326.7,-0.8,1.8,2470.829,13.28,0.021,135.0
2022-03-13T06:55:03,42.805,6.029,0.024,-0.011,0.031,103.0,103.0,101.0,13.4,1505.2,329.8,-0.7,1.8,2470.874,13.28,0.026,114.6
2022-03-13T06:58:03,42.805,6.029,0.007,0.007,0.004,104.0,102.0,103.0,13.4,1505.2,325.3,-0.7,1.8,2470.833,13.28,0.009,45.0
2022-03-13T07:04:03,42.805,6.029,0.026,-0.019,-0.004,103.0,105.0,102.0,13.4,1505.2,322.9,-0.7,1.8,2470.866,13.28,0.032,126.2
2022-03-13T07:07:03,42.805,6.029,0.024,-0.019,-0.01,104.0,103.0,102.0,13.3,1505.2,325.5,-0.8,1.8,2470.891,13.28,0.03,128.4
2022-03-13T07:10:03,42.805,6.029,0.027,-0.013,-0.04,104.0,103.0,101.0,13.4,1505.2,330.8,-0.8,1.8,2470.898,13.28,0.029,115.7
2022-03-13T07:13:03,42.805,6.029,0.012,-0.019,0.011,104.0,104.0,102.0,13.4,1505.2,329.0,-0.8,1.8,2470.851,13.28,0.022,147.7
2022-03-13T07:16:03,42.805,6.029,0.008,-0.028,-0.007,105.0,103.0,102.0,13.4,1505.2,325.2,-0.8,1.8,2470.855,13.28,0.029,164.1
2022-03-13T07:19:03,42.805,6.029,0.025,-0.025,-0.017,104.0,103.0,101.0,13.4,1505.2,332.3,-0.8,1.8,2470.869,13.28,0.035,135.0
2022-03-13T07:22:03,42.805,6.029,0.02,-0.012,-0.001,103.0,103.0,102.0,13.4,1505.2,322.5,-0.7,1.8,2470.859,13.28,0.023,121.0
2022-03-13T07:25:03,42.805,6.029,0.029,-0.024,-0.003,103.0,103.0,102.0,13.4,1505.2,328.1,-0.8,1.8,2470.809,13.28,0.037,129.6
2022-03-13T07:28:03,42.805,6.029,0.037,-0.016,0.021,103.0,104.0,102.0,13.3,1505.2,326.1,-0.8,1.8,2470.837,13.28,0.04,113.4
2022-03-13T07:31:03,42.805,6.029,0.037,-0.009,0.004,104.0,104.0,101.0,13.4,1505.2,324.8,-0.8,1.8,2470.842,13.28,0.038,103.7
2022-03-13T07:34:03,42.805,6.029,0.016,-0.02,0.018,103.0,104.0,101.0,13.4,1505.2,328.6,-0.7,1.8,2470.861,13.28,0.025,141.3
2022-03-13T07:37:03,42.805,6.029,0.035,-0.002,-0.015,104.0,103.0,102.0,13.4,1505.2,326.2,-0.8,1.9,2470.862,13.28,0.035,93.3
2022-03-13T07:40:03,42.805,6.029,0.013,-0.019,-0.006,103.0,103.0,102.0,13.4,1505.2,328.9,-0.8,1.8,2470.865,13.28,0.023,145.6
2022-03-13T07:43:03,42.805,6.029,0.02,-0.026,-0.004,104.0,103.0,102.0,13.4,1505.2,328.6,-0.8,1.8,2470.855,13.28,0.032,142.4
2022-03-13T07:46:03,42.805,6.029,0.024,-0.03,-0.018,102.0,105.0,102.0,13.3,1505.2,323.8,-0.7,1.8,2470.851,13.28,0.038,141.3
2022-03-13T07:49:03,42.805,6.029,0.03,-0.021,-0.038,104.0,104.0,102.0,13.4,1505.2,323.2,-0.8,1.8,2470.814,13.28,0.036,125.0
2022-03-13T07:52:03,42.805,6.029,0.032,-0.01,-0.023,104.0,104.0,101.0,13.4,1505.2,328.7,-0.7,1.8,2470.848,13.28,0.033,107.4
2022-03-13T07:55:03,42.805,6.029,0.026,-0.029,-0.031,104.0,104.0,101.0,13.3,1505.2,330.1,-0.8,1.8,2470.836,13.28,0.038,138.1
2022-03-13T07:58:03,42.805,6.029,0.037,-0.019,-0.007,104.0,102.0,102.0,13.4,1505.2,331.5,-0.8,1.8,2470.823,13.28,0.041,117.2
2022-03-13T08:04:03,42.805,6.029,0.003,-0.004,-0.001,102.0,105.0,101.0,13.4,1505.2,328.7,-0.8,1.8,2470.897,13.28,0.005,143.1
2022-03-13T08:07:03,42.805,6.029,0.001,-0.01,-0.013,105.0,103.0,102.0,13.4,1505.2,327.2,-0.8,1.8,2470.863,13.28,0.01,174.3
2022-03-13T08:10:03,42.805,6.029,0.019,-0.024,0.009,103.0,103.0,103.0,13.3,1505.2,329.4,-0.7,1.9,2470.858,13.28,0.03,141.6
2022-03-13T08:13:03,42.805,6.029,0.019,-0.015,0.0,103.0,104.0,102.0,13.3,1505.2,326.5,-0.8,1.8,2470.856,13.28,0.024,128.3
2022-03-13T08:16:03,42.805,6.029,0.033,-0.002,-0.011,103.0,103.0,102.0,13.4,1505.2,325.7,-0.8,1.8,2470.819,13.28,0.033,93.5
2022-03-13T08:19:03,42.805,6.029,0.027,-0.01,0.03,103.0,104.0,102.0,13.4,1505.2,328.9,-0.8,1.8,2470.807,13.28,0.028,110.3
2022-03-13T08:22:03,42.805,6.029,0.022,-0.022,-0.014,104.0,105.0,102.0,13.4,1505.2,325.2,-0.8,1.8,2470.851,13.28,0.031,135.0
2022-03-13T08:25:03,42.805,6.029,0.031,-0.012,-0.034,105.0,103.0,102.0,13.4,1505.2,324.8,-0.8,1.8,2470.8,13.28,0.033,111.2
2022-03-13T08:28:03,42.805,6.029,0.04,-0.007,0.013,103.0,106.0,102.0,13.4,1505.2,326.7,-0.8,1.8,2470.821,13.28,0.04,99.9
2022-03-13T08:31:03,42.805,6.029,0.017,-0.021,-0.006,104.0,103.0,102.0,13.3,1505.2,326.3,-0.8,1.8,2470.819,13.28,0.027,141.0
2022-03-13T08:34:03,42.805,6.029,0.007,-0.012,0.002,103.0,104.0,101.0,13.3,1505.2,329.0,-0.8,1.9,2470.827,13.28,0.013,149.7
2022-03-13T08:37:03,42.805,6.029,0.017,-0.001,-0.004,103.0,105.0,102.0,13.3,1505.2,324.4,-0.7,1.8,2470.811,13.28,0.017,93.4
2022-03-13T08:40:03,42.805,6.029,0.034,-0.02,0.01,103.0,104.0,101.0,13.4,1505.2,326.1,-0.7,1.8,2470.814,13.28,0.039,120.5
2022-03-13T08:43:03,42.805,6.029,0.047,-0.02,-0.005,104.0,104.0,102.0,13.4,1505.2,323.8,-0.8,1.8,2470.816,13.28,0.051,113.0
2022-03-13T08:46:03,42.805,6.029,0.054,-0.005,0.01,103.0,103.0,101.0,13.4,1505.2,328.5,-0.7,1.8,2470.825,13.28,0.054,95.3
2022-03-13T08:49:03,42.805,6.029,-0.001,-0.007,-0.012,104.0,103.0,101.0,13.4,1505.2,330.2,-0.7,1.8,2470.795,13.28,0.007,188.1
2022-03-13T08:52:03,42.805,6.029,0.022,-0.012,-0.006,103.0,104.0,101.0,13.4,1505.2,327.9,-0.8,1.8,2470.84,13.28,0.025,118.6
2022-03-13T08:55:03,42.805,6.029,0.027,-0.02,0.03,103.0,103.0,102.0,13.4,1505.2,326.2,-0.7,1.8,2470.804,13.28,0.033,126.5
2022-03-13T08:58:03,42.805,6.029,0.018,-0.005,-0.001,105.0,102.0,101.0,13.3,1505.2,328.6,-0.7,1.8,2470.824,13.28,0.018,105.5
2022-03-13T09:04:03,42.805,6.029,0.027,-0.009,-0.009,105.0,102.0,101.0,13.4,1505.2,331.3,-0.8,1.8,2470.857,13.28,0.028,108.4
2022-03-13T09:07:03,42.805,6.029,0.009,-0.026,0.014,103.0,103.0,102.0,13.4,1505.2,327.3,-0.8,1.9,2470.839,13.28,0.027,160.9
2022-03-13T09:10:03,42.805,6.029,0.016,-0.014,0.01,102.0,105.0,100.0,13.4,1505.2,326.6,-0.8,1.8,2470.874,13.28,0.021,131.2
2022-03-13T09:13:03,42.805,6.029,0.021,-0.004,0.027,104.0,103.0,101.0,13.4,1505.2,325.8,-0.8,1.8,2470.842,13.28,0.021,100.8
2022-03-13T09:16:03,42.805,6.029,0.016,-0.018,-0.014,104.0,104.0,101.0,13.4,1505.2,324.2,-0.7,1.7,2470.844,13.28,0.024,138.4
2022-03-13T09:19:03,42.805,6.029,0.026,-0.025,-0.008,104.0,104.0,101.0,13.4,1505.2,331.9,-0.8,1.8,2470.818,13.28,0.036,133.9
2022-03-13T09:22:03,42.805,6.029,0.015,-0.029,0.005,103.0,105.0,102.0,13.4,1505.2,325.0,-0.8,1.8,2470.821,13.28,0.032,152.6
2022-03-13T09:25:03,42.805,6.029,0.017,-0.005,-0.002,104.0,104.0,101.0,13.4,1505.2,325.6,-0.8,1.8,2470.816,13.28,0.017,106.4
2022-03-13T09:28:03,42.805,6.029,0.011,-0.03,-0.007,104.0,104.0,102.0,13.4,1505.2,329.1,-0.7,1.8,2470.826,13.28,0.031,159.9
2022-03-13T09:31:03,42.805,6.029,0.021,-0.005,-0.015,102.0,104.0,102.0,13.4,1505.2,331.5,-0.8,1.8,2470.827,13.28,0.021,103.4
2022-03-13T09:34:03,42.805,6.029,0.024,-0.017,-0.005,103.0,103.0,101.0,13.4,1505.2,323.7,-0.8,1.8,2470.794,13.28,0.029,125.3
2022-03-13T09:37:03,42.805,6.029,0.012,-0.034,-0.016,103.0,103.0,101.0,13.4,1505.2,323.3,-0.7,1.8,2470.841,13.28,0.036,160.6
2022-03-13T09:40:03,42.805,6.029,0.031,-0.001,-0.021,103.0,104.0,102.0,13.4,1505.2,324.1,-0.8,1.8,2470.795,13.28,0.031,91.8
2022-03-13T09:43:03,42.805,6.029,0.007,-0.009,-0.013,103.0,105.0,101.0,13.3,1505.2,322.9,-0.7,1.8,2470.772,13.28,0.011,142.1
2022-03-13T09:46:03,42.805,6.029,0.036,-0.026,-0.01,103.0,106.0,102.0,13.4,1505.2,323.5,-0.7,1.8,2470.8,13.28,0.044,125.8
2022-03-13T09:49:03,42.805,6.029,0.018,-0.029,-0.043,104.0,103.0,101.0,13.4,1505.2,330.3,-0.7,1.8,2470.784,13.28,0.034,148.2
2022-03-13T09:52:03,42.805,6.029,0.043,-0.01,-0.007,104.0,104.0,101.0,13.4,1505.2,329.2,-0.7,1.9,2470.778,13.28,0.044,103.1
2022-03-13T09:55:03,42.805,6.029,0.031,-0.012,-0.045,104.0,104.0,101.0,13.4,1505.2,323.2,-0.8,1.8,2470.777,13.28,0.033,111.2